Location: Contre
(49.7477°N, 2.0963°E)
Time: 12:41:54
(UTC+00:00)

IRIDIUM 104 - Pass Details

Date: 03 February 2023
Orbit: 776 x 779 km, 86.4° (Epoch: 21 March)

Event Time Altitude Azimuth Distance (km) Brightness Sun altitude
Rises 18:26:06 0° 357° (N) 3,277 7.5 -15.8°
Reaches altitude 10° 18:28:29 10° 0° (N) 2,344 6.7 -16.1°
Maximum altitude 18:33:43 69° 84° (E) 835 4.2 -17.0°
Drops below altitude 10° 18:38:55 10° 168° (SSE) 2,325 6.7 -17.8°
Sets 18:41:16 0° 171° (S) 3,247 7.5 -18.2°
